Theta_e
332 334 337 333 332 332 332 333 331 332 331 332 332 333 333 333 335 338 343 347 349 351 351 351 351 346 353 354 355 356 353 350 350 354 354 354 349 347 345 345 345 340 343 345
334 336 332 330 330 331 332 331 332 331 331 331 332 333 334 334 336 336 340 346 346 349 351 352 352 351 351 354 355 355 357 356 351 354 354 353 353 350 344 345 343 343 344 345
336 335 330 331 331 332 331 331 330 330 331 332 333 336 339 338 339 339 338 343 344 347 349 351 353 353 350 345 344 351 353 355 351 352 355 352 352 350 347 346 347 345 345 346
334 332 330 331 332 331 331 330 330 331 332 335 334 340 340 340 341 343 340 341 344 347 349 349 351 353 351 344 339 345 341 349 349 345 356 351 346 346 346 343 345 345 347 345
331 330 330 331 332 330 331 331 331 332 333 335 335 337 340 341 342 345 345 345 345 341 347 349 348 351 353 350 345 339 345 346 347 347 350 351 347 345 346 351 346 344 345 345
329 329 329 331 330 330 330 331 332 333 334 336 335 336 341 344 348 347 347 347 346 343 342 347 348 349 353 354 354 348 344 340 347 348 348 348 350 347 347 344 349 351 350 351
328 329 329 328 330 331 331 332 335 335 336 337 335 336 340 343 346 348 349 348 347 346 346 347 349 350 353 354 355 353 352 345 346 351 348 348 348 348 346 346 350 351 350 350
328 330 330 331 331 334 332 333 335 337 336 336 334 335 343 343 345 348 349 349 348 348 349 349 350 352 354 355 356 355 355 351 350 349 348 348 349 351 352 351 352 351 350 350
332 335 331 331 331 332 333 334 333 334 334 335 336 336 336 343 344 348 349 349 350 350 350 352 354 354 354 354 356 356 354 348 348 345 343 348 350 350 355 351 348 346 352 353
332 335 333 333 331 332 334 333 335 336 339 339 337 336 337 342 345 348 348 350 351 349 351 353 351 351 350 351 352 354 355 352 350 346 343 342 350 352 353 348 347 348 346 350
331 332 335 334 334 335 334 335 335 335 336 338 337 336 339 342 346 348 344 347 351 351 348 346 345 345 347 350 350 351 352 353 353 351 352 353 354 350 350 348 339 340 348 350
330 333 334 334 332 331 333 334 335 337 338 337 336 335 339 343 345 343 342 346 351 352 350 345 344 345 346 346 345 345 347 348 350 354 356 356 357 354 349 346 345 335 346 346
332 333 337 336 333 332 334 334 334 334 334 336 336 335 338 338 338 341 342 344 349 350 351 349 345 344 346 348 349 348 349 351 347 352 353 357 356 357 353 350 342 339 347 347
330 334 335 337 339 336 336 334 333 334 335 335 335 333 333 331 333 336 338 339 348 348 347 349 346 344 344 344 344 343 344 348 350 350 353 355 355 348 351 347 347 345 348 347
333 337 337 335 334 333 334 333 333 333 333 334 333 332 331 330 337 339 340 343 346 345 343 342 340 338 336 337 339 338 337 343 347 348 351 350 344 343 344 347 345 350 350 349
333 336 335 335 333 332 332 332 331 331 331 331 330 330 335 337 340 341 341 342 342 340 338 337 335 333 332 332 332 333 333 330 340 343 344 344 341 337 351 352 352 354 341 348
333 334 335 336 333 332 333 333 332 331 330 330 331 335 337 338 339 339 339 339 338 337 337 337 336 335 335 334 333 332 331 329 329 335 337 340 342 341 331 331 346 354 352 351
332 334 335 336 335 336 332 331 330 329 329 332 332 335 337 337 336 336 336 337 338 338 336 333 332 331 332 332 331 331 331 330 327 326 331 333 336 338 339 330 325 326 340 351
326 329 330 331 330 329 327 332 332 332 332 333 334 333 332 331 331 334 335 335 334 332 330 330 329 328 329 329 329 329 330 330 330 331 332 332 331 333 337 339 334 324 323 327
327 327 328 330 329 329 334 330 328 329 332 331 330 330 331 330 334 333 330 328 327 327 327 326 326 326 326 327 327 328 328 329 330 327 325 329 323 323 329 334 338 323 322 328
331 332 331 331 331 331 330 328 328 333 334 328 327 327 327 329 328 327 326 326 326 326 326 327 327 327 327 327 327 328 328 329 329 330 330 328 329 330 332 329 336 334 330 326
332 332 331 331 332 331 328 328 331 330 327 326 326 326 326 325 325 325 326 326 326 327 327 328 328 328 328 328 328 328 328 329 329 330 330 330 329 330 327 329 335 338 339 338
329 330 333 330 332 329 327 327 326 325 326 325 325 325 325 325 325 325 325 326 327 327 328 328 328 329 329 328 328 328 328 329 329 329 329 329 329 330 331 330 332 334 336 336
327 327 326 327 327 326 326 325 325 325 325 325 325 324 324 325 326 327 327 327 327 327 328 328 328 328 328 328 329 329 329 329 328 329 329 329 329 329 330 329 328 329 333 333
327 326 327 326 325 325 324 324 324 324 325 324 324 325 326 326 327 327 327 327 328 328 328 328 328 329 329 329 329 328 329 329 328 328 328 328 328 328 328 329 328 327 328 332
325 327 326 327 325 326 326 325 324 324 324 326 326 326 327 327 327 328 328 328 328 328 328 329 329 328 328 329 329 329 329 329 328 328 327 327 328 327 327 327 327 328 326 328
Wind_Speed
2 9 8 8 4 5 5 6 8 5 5 6 9 10 12 10 10 8 9 14 18 18 18 18 19 17 17 17 18 20 20 21 17 14 15 14 15 14 17 15 14 17 19 15
9 11 7 1 4 4 5 9 8 9 1 6 11 13 9 5 5 5 7 13 15 17 19 21 22 18 16 16 20 20 19 16 16 14 15 14 12 15 15 16 15 15 17 15
16 4 2 5 5 7 8 8 8 9 10 11 9 6 1 6 8 6 2 8 11 17 22 25 26 25 19 15 15 16 17 15 13 16 14 15 14 15 15 17 17 16 18 16
10 4 7 8 10 6 14 6 6 9 9 6 4 4 8 5 6 13 12 4 6 12 18 22 25 28 28 17 6 8 9 14 17 16 17 15 14 14 14 14 13 14 15 17
8 8 11 10 7 3 7 3 8 9 11 7 4 8 9 4 5 10 10 7 3 7 17 22 26 27 26 26 13 11 11 12 13 14 16 16 17 14 13 11 11 12 13 16
12 3 7 9 2 5 5 11 9 7 5 8 6 7 10 6 7 9 9 8 6 2 12 17 20 21 23 24 25 20 19 18 15 14 16 17 17 14 13 12 10 8 9 11
16 15 8 8 11 7 9 15 5 6 6 2 6 6 9 6 7 8 9 8 7 4 4 7 12 18 21 23 23 25 28 22 21 20 20 18 17 16 15 13 11 11 10 11
10 11 10 7 12 8 10 10 4 3 2 4 5 4 6 5 5 7 6 7 8 10 8 6 8 11 15 19 19 20 20 27 17 18 20 19 17 15 14 13 12 11 11 13
6 4 6 1 4 8 8 10 9 9 6 7 3 2 10 3 4 7 8 7 10 11 11 10 8 6 8 13 15 15 16 21 20 14 15 19 18 18 14 14 12 14 13 15
2 4 4 7 3 4 6 5 6 4 4 7 6 7 6 7 4 5 8 11 9 12 11 10 9 7 6 5 7 10 13 14 15 19 10 11 14 15 15 12 15 14 15 18
8 6 9 5 6 0 6 9 3 6 6 8 10 5 5 4 3 5 5 9 7 7 7 8 9 7 6 6 4 3 6 10 11 14 13 15 12 15 15 16 15 23 17 18
11 6 8 3 5 1 6 8 8 7 8 4 7 11 5 4 2 5 6 6 8 4 5 6 6 6 6 6 5 3 2 6 8 11 13 14 13 15 18 24 21 8 14 14
6 8 7 7 9 9 8 5 8 8 8 12 8 5 3 3 6 8 9 7 6 6 2 3 2 3 5 5 5 5 7 9 14 11 9 7 8 13 15 20 15 11 10 15
5 9 9 10 7 6 5 7 9 12 11 13 10 11 6 7 5 12 12 9 5 4 6 5 3 3 5 5 6 7 9 12 10 2 6 4 3 6 10 11 21 18 17 15
5 10 4 4 6 6 8 9 11 14 14 14 14 14 11 10 9 11 9 5 2 2 6 6 5 4 5 5 5 7 9 11 13 5 1 3 5 8 11 12 15 21 22 17
3 7 6 12 6 9 13 13 14 14 14 15 14 14 6 3 4 4 4 3 1 2 3 4 4 4 4 4 5 6 8 9 8 7 5 4 6 6 7 13 20 20 13 20
5 8 7 14 4 9 13 14 14 15 12 11 13 5 3 1 2 3 3 3 3 2 2 3 4 6 7 8 9 10 9 9 9 7 6 5 6 7 9 9 10 12 16 19
7 8 8 11 7 15 3 5 5 8 7 6 7 2 3 2 4 5 4 5 7 9 8 8 9 11 12 13 13 14 13 13 14 14 12 10 9 9 10 11 13 12 9 15
6 9 8 7 11 11 8 3 3 4 5 2 5 2 1 3 7 13 10 10 11 12 13 16 17 17 18 18 18 18 19 19 18 18 17 17 16 14 13 13 14 17 17 14
2 6 8 5 9 9 8 6 3 2 9 5 3 2 5 7 8 2 2 7 14 18 22 25 27 27 26 26 24 24 25 24 24 26 27 22 26 23 20 17 17 19 20 19
5 4 10 8 8 1 4 2 1 8 4 4 5 6 10 10 14 21 24 24 24 25 26 27 27 28 28 26 27 29 28 28 27 26 25 27 24 22 20 20 19 20 21 20
4 4 5 4 6 12 4 3 6 6 6 8 11 15 17 19 23 24 25 27 28 30 30 29 30 30 30 29 28 30 30 29 28 27 25 26 26 23 23 22 20 20 20 20
3 3 5 3 5 3 2 2 3 6 9 13 15 18 20 24 27 28 30 31 32 32 33 31 31 32 29 28 28 29 29 26 27 28 29 27 26 24 22 21 21 22 22 22
4 1 4 3 5 3 5 9 10 11 13 16 19 23 25 28 30 31 31 32 33 33 33 32 32 30 29 28 28 28 27 25 25 26 26 26 26 25 23 23 23 25 25 25
6 2 2 7 9 7 10 10 12 15 19 23 24 26 28 30 32 32 33 34 35 34 33 31 31 31 32 29 27 27 26 24 23 24 23 24 26 26 25 25 25 26 27 27
2 3 5 6 11 9 13 15 18 21 24 24 27 31 31 32 33 33 34 35 36 36 35 33 33 32 30 30 29 28 25 25 24 24 24 23 24 26 26 25 26 27 30 32
Wind_Direction
170 266 225 37 9 343 311 292 309 326 353 297 309 301 301 314 273 263 210 212 203 192 183 189 195 199 207 215 207 211 233 226 217 212 220 227 238 242 244 244 252 238 233 232
222 246 79 40 314 313 293 296 281 304 292 293 302 304 322 330 335 315 232 213 209 186 181 190 199 202 209 213 216 210 214 224 216 220 225 230 239 245 252 246 242 245 246 234
241 77 124 271 240 277 234 313 343 324 313 269 293 241 86 69 66 55 174 196 198 191 193 196 202 201 199 221 220 223 227 216 230 225 227 236 238 240 251 249 244 244 248 238
247 232 246 243 256 268 298 49 319 304 297 352 335 110 82 93 91 61 64 116 189 186 202 206 208 206 199 185 172 190 232 226 232 228 219 232 250 258 258 259 254 247 243 238
235 202 213 241 263 318 318 353 320 303 286 258 74 275 105 111 96 21 24 30 52 191 201 207 208 211 208 205 192 170 228 221 212 224 223 226 236 251 250 237 247 259 248 232
259 189 264 261 266 261 307 271 249 252 261 239 55 312 107 46 359 357 2 358 355 232 197 202 205 205 208 212 214 209 227 229 219 219 228 232 235 236 238 244 242 241 242 243
209 219 215 240 250 207 233 249 237 212 204 10 43 277 49 37 23 351 351 358 14 53 134 167 185 195 203 207 209 216 232 244 243 230 240 232 234 237 240 240 247 240 248 247
206 173 203 159 238 278 214 304 310 247 302 5 119 276 93 39 1 20 13 20 41 61 76 117 159 184 198 201 212 215 226 230 239 239 239 236 232 235 238 243 235 247 255 259
191 107 102 134 209 254 157 233 14 288 180 257 62 164 246 135 23 27 25 32 59 76 82 96 110 137 174 191 210 216 223 227 237 234 247 245 239 233 233 237 250 250 259 257
98 182 196 122 197 111 301 72 232 187 291 317 340 299 281 18 3 29 33 40 61 78 71 88 87 89 112 162 202 223 233 240 249 235 248 249 242 237 239 263 266 263 270 271
242 263 147 198 218 340 173 211 208 308 292 310 294 341 40 6 341 329 9 43 37 56 67 87 83 75 87 91 106 190 235 249 240 237 244 265 245 247 237 232 263 271 259 270
220 266 243 245 78 274 280 300 277 281 299 280 290 286 83 54 344 345 331 18 28 39 82 117 82 73 64 63 61 45 321 287 277 261 248 246 249 248 242 228 265 258 242 258
186 239 210 202 186 200 238 218 270 280 282 280 290 311 86 46 316 306 320 321 3 16 49 168 141 55 62 54 45 9 348 328 303 250 245 241 242 249 256 250 251 240 249 251
226 268 272 296 10 6 208 225 239 265 277 293 276 283 272 307 318 316 316 299 316 17 51 113 111 56 53 52 45 24 17 8 0 188 204 230 227 247 256 254 237 240 233 240
266 270 281 296 308 283 283 270 245 257 272 281 305 309 309 336 328 311 305 297 291 55 70 81 76 64 50 30 21 22 25 18 26 56 180 284 288 282 274 253 243 226 227 240
250 276 273 277 249 268 274 268 260 263 267 280 280 283 57 19 319 327 334 299 268 85 65 59 54 42 29 11 7 360 358 10 18 25 25 18 2 358 290 277 261 233 223 233
282 285 263 274 300 281 267 263 259 272 272 287 275 2 84 176 292 325 325 318 306 317 340 328 322 319 313 311 310 313 318 318 325 330 326 324 326 330 336 332 309 297 261 247
262 262 276 269 257 256 9 3 302 280 289 270 267 322 347 326 290 278 280 285 297 301 305 310 307 302 297 295 295 300 300 304 299 299 302 302 299 299 305 315 320 326 301 264
256 252 256 252 246 257 221 161 297 272 259 228 279 217 263 303 298 266 250 276 287 289 289 300 300 298 294 292 291 289 289 290 290 291 292 293 297 296 293 295 297 303 305 305
155 241 244 193 267 273 68 100 345 299 259 66 308 291 311 314 283 59 9 304 293 286 284 288 290 290 287 285 284 280 278 277 276 279 282 280 287 287 288 283 285 289 290 292
189 228 232 226 258 253 76 53 262 242 39 5 336 320 306 296 300 298 298 294 290 287 286 285 284 283 283 283 281 278 275 272 271 270 270 272 272 272 272 276 268 276 273 270
240 251 220 256 275 257 61 182 289 7 321 321 310 303 298 296 297 296 294 292 292 290 289 285 284 283 280 278 277 275 275 277 273 270 266 263 265 264 266 262 260 260 260 263
235 333 342 311 26 56 356 357 326 318 310 309 305 301 298 296 294 295 295 293 292 290 289 286 284 285 281 277 275 273 272 275 274 271 269 264 259 257 257 257 256 257 257 257
154 6 265 313 107 340 319 297 295 288 297 302 300 298 297 294 294 293 295 296 294 292 290 286 285 282 280 278 274 270 272 275 274 269 267 263 256 253 254 257 257 255 252 251
38 176 306 271 267 307 294 309 300 288 295 300 300 298 297 296 294 293 294 294 293 290 289 285 281 280 281 280 276 270 271 273 269 265 264 264 258 256 257 256 253 250 249 246
168 25 288 329 344 315 300 309 307 302 299 300 301 300 299 296 292 291 291 291 291 289 287 283 279 277 277 278 272 272 271 268 261 260 259 259 256 256 256 257 258 257 251 240